Wind_Speed
54 54 53 52 51 49 48 46 45 44 42 42 42 42 42 41 39 37 36 36 37 37 37 37 35 32 30 28 27 27 28 29 29 30 31 32 33 33 34 35 36 37 38 38 38 37 36 37 37 37 39 40 42 44 44 43 43 42 39 38 38 39 42
52 51 50 49 49 48 47 46 45 43 40 39 39 40 39 38 36 34 33 34 35 36 36 36 35 34 31 29 27 27 27 28 28 28 28 29 29 29 30 30 31 32 33 34 35 35 36 37 37 37 38 39 40 42 44 44 44 43 41 38 38 39 40
52 50 48 47 47 47 47 47 45 43 39 37 36 35 34 34 33 32 32 33 34 35 35 35 35 34 32 30 28 27 27 28 28 28 28 29 29 29 29 30 30 29 30 31 32 34 36 37 37 37 38 37 38 40 42 44 43 43 41 39 38 39 39
53 53 51 49 48 47 46 46 44 43 40 38 37 34 32 32 33 32 32 33 35 36 36 35 35 35 33 31 29 28 27 28 28 28 28 28 28 29 29 29 29 29 28 28 29 31 34 37 37 37 38 37 36 37 41 44 44 43 42 40 39 38 38
54 55 54 53 49 47 45 45 44 43 42 41 41 39 37 36 35 35 34 34 35 37 38 37 36 36 35 33 31 29 28 28 28 29 28 28 28 28 28 29 29 30 29 28 27 28 30 34 36 38 38 37 36 35 38 43 45 44 43 41 39 37 35
53 55 55 53 51 47 45 45 45 44 43 43 43 44 43 41 38 37 37 36 37 38 40 40 38 37 36 36 34 32 30 29 29 29 29 29 28 28 28 28 29 30 30 30 29 28 29 31 34 37 38 38 37 36 37 40 43 45 44 42 40 38 34
50 52 51 50 49 48 46 46 47 46 45 44 44 45 45 44 41 39 39 39 40 40 41 41 39 37 36 37 37 36 34 32 30 30 31 31 31 30 29 29 29 29 30 31 31 31 30 30 32 36 39 40 39 38 37 39 41 43 45 44 42 39 37
50 51 51 48 47 47 48 47 48 48 47 45 45 46 46 45 42 41 40 41 43 44 43 43 42 39 37 36 37 38 38 36 34 33 33 33 33 33 32 31 30 30 30 30 31 32 32 31 31 33 37 40 41 41 40 40 41 42 44 45 44 42 40
50 53 54 52 49 48 48 49 49 49 49 47 47 48 48 46 43 42 42 44 45 46 46 46 45 43 40 38 38 39 40 40 39 37 36 35 35 35 35 34 33 32 32 31 31 31 32 33 33 33 35 38 41 43 43 42 42 43 43 45 46 46 43
48 52 54 54 52 50 48 49 50 50 51 51 51 51 50 49 46 46 47 48 48 47 47 47 46 45 43 42 40 40 41 42 42 41 40 38 37 37 37 36 36 36 35 34 33 33 32 33 34 34 35 36 38 42 44 45 44 44 45 45 46 47 47
50 51 53 53 53 52 49 48 49 51 52 53 54 54 53 53 52 52 52 51 49 47 46 46 45 45 44 43 43 42 43 43 43 44 44 43 41 40 39 38 38 38 38 38 37 36 35 34 34 34 35 36 37 39 42 45 46 46 46 47 46 47 47
54 54 54 54 54 54 53 51 51 52 53 54 55 55 54 55 54 54 54 53 51 49 48 46 45 45 45 44 43 43 43 43 43 44 45 45 45 44 43 42 41 41 41 41 40 40 39 37 36 35 36 36 37 38 40 43 45 46 47 48 48 47 47
57 57 57 55 55 55 55 55 55 55 55 55 55 55 55 56 56 56 55 53 52 51 50 49 47 46 45 45 44 43 43 43 43 44 45 46 47 47 47 46 45 44 44 43 43 42 42 41 40 39 38 37 38 39 40 41 43 45 47 49 50 50 49
59 58 57 56 56 56 57 58 58 57 56 56 56 57 57 58 59 59 57 56 55 54 53 52 50 49 48 47 47 46 45 45 45 45 45 47 48 49 49 49 49 48 47 46 45 45 45 44 43 42 41 41 40 40 40 41 42 44 46 47 50 51 51
59 58 57 56 55 56 57 59 59 59 58 58 58 59 60 61 62 62 61 60 59 58 57 56 55 54 53 53 52 51 50 50 49 49 48 49 49 49 50 50 50 50 50 50 49 48 48 47 47 46 45 44 44 43 43 42 43 44 45 47 48 50 52
61 60 59 58 56 56 58 60 61 61 60 59 59 60 61 62 63 64 64 64 63 61 60 59 58 58 58 58 57 56 56 55 55 54 53 52 51 51 51 51 51 51 51 51 51 51 51 50 50 49 49 48 48 47 47 46 46 45 46 47 48 49 50
61 61 61 61 61 60 61 62 63 63 63 63 63 63 63 64 65 66 66 65 63 62 61 61 61 61 60 60 60 59 59 59 58 57 55 54 53 53 52 52 51 51 52 52 52 52 53 53 52 52 52 52 51 51 51 50 50 49 48 48 49 50 51
59 59 60 61 62 63 63 63 63 64 65 66 67 66 65 65 66 66 65 64 62 61 61 61 61 61 61 61 61 60 60 59 58 56 53 52 52 53 54 53 53 52 52 52 52 52 53 53 54 54 54 55 55 55 54 54 53 53 52 51 51 51 52
55 57 58 58 59 60 62 63 63 63 64 65 67 68 68 67 66 65 63 62 61 60 59 60 59 59 59 60 60 59 58 56 55 53 52 52 53 54 54 55 55 54 54 54 54 54 54 54 54 55 55 56 57 57 57 57 57 57 56 56 55 54 54
53 54 54 54 53 55 58 60 61 62 63 64 65 65 66 65 63 61 59 57 58 59 58 58 57 57 57 57 58 57 56 56 55 55 54 54 55 55 54 54 55 55 56 57 57 57 56 56 56 56 56 57 58 58 59 60 60 60 59 59 59 58 58
53 52 52 52 51 52 55 56 57 59 61 62 61 58 57 57 56 56 55 54 54 54 56 58 55 53 53 54 55 57 57 58 58 57 55 54 54 54 52 51 52 53 55 57 59 60 60 60 60 59 59 59 59 60 60 60 61 62 62 62 63 63 62
54 53 53 54 54 56 58 56 55 56 55 55 55 52 50 50 50 51 52 53 50 46 49 57 57 53 52 53 55 57 59 60 60 60 58 55 54 55 54 53 53 54 55 57 58 59 60 61 62 62 62 62 62 62 61 61 61 62 64 65 65 66 66
56 55 55 56 56 57 58 55 54 53 51 50 53 54 54 53 52 52 53 55 53 50 52 60 63 59 56 55 56 57 59 60 61 62 61 60 58 59 60 60 60 59 58 59 60 61 61 61 63 64 65 65 65 65 64 63 63 64 65 66 67 68 68
58 58 57 57 57 57 58 58 58 57 56 54 55 57 58 57 56 55 55 55 58 60 61 63 64 63 62 61 60 59 59 60 60 61 62 62 62 63 64 64 64 63 62 62 62 63 63 63 63 64 66 67 67 67 67 67 67 67 68 68 69 69 70
59 59 59 59 59 59 60 62 62 62 61 60 60 61 62 61 58 57 56 57 61 63 63 63 64 65 66 66 65 64 63 63 63 62 61 62 63 64 65 66 66 66 65 64 64 65 65 65 65 65 67 67 68 68 70 70 71 71 72 72 72 72 71
60 60 60 61 61 61 62 63 63 63 63 63 65 67 68 67 65 63 62 64 66 67 66 66 67 68 68 68 67 67 67 67 67 67 66 66 67 68 69 69 69 68 67 66 66 66 67 67 67 67 67 68 68 69 70 71 72 73 74 74 75 75 75
61 61 62 63 64 65 65 65 66 66 66 66 67 69 69 69 69 68 68 69 70 71 70 70 70 70 70 69 69 69 69 70 71 71 72 72 73 73 72 72 72 71 70 68 68 68 68 68 68 68 69 69 70 69 70 71 72 72 73 74 75 76 77
62 63 64 65 66 67 67 67 67 67 68 68 69 70 70 70 70 69 70 71 72 72 72 71 71 70 70 70 70 70 71 72 73 74 75 76 76 76 76 75 74 74 73 72 71 70 69 69 69 70 70 71 72 71 70 70 71 71 72 73 74 76 77
63 64 65 66 67 68 68 68 67 66 66 67 69 69 70 70 70 70 71 71 72 72 72 71 71 71 71 71 71 71 71 72 73 74 75 77 78 78 78 78 78 77 76 76 75 74 73 71 71 72 73 74 74 73 72 72 72 73 73 73 74 75 76
64 65 66 67 67 67 67 66 66 65 65 65 66 68 69 70 70 70 70 70 71 71 71 71 71 71 71 71 71 71 72 72 73 74 76 77 78 79 80 80 80 80 80 80 79 78 78 76 75 75 76 76 77 77 76 76 75 75 75 74 74 74 76
64 65 66 67 67 66 66 65 64 64 65 65 65 66 67 68 69 70 70 70 70 71 71 71 71 71 72 72 72 72 73 74 75 76 77 78 79 80 81 82 82 82 83 83 82 82 81 81 80 79 79 79 80 80 80 80 79 78 77 76 76 76 76
63 65 65 66 67 67 66 65 65 65 65 66 65 65 66 67 68 69 70 70 71 71 72 72 72 72 73 73 73 74 75 76 77 78 79 80 81 82 83 83 84 84 84 85 85 85 85 85 84 83 83 82 82 82 82 82 82 82 81 80 79 78 78
63 65 65 66 67 67 67 67 67 67 66 66 65 65 66 66 68 69 70 71 72 72 73 73 72 73 73 74 75 76 77 78 79 80 81 81 82 83 84 84 85 85 86 86 87 87 88 88 88 87 86 85 84 84 84 84 84 84 84 84 83 82 81
62 64 66 66 67 67 67 67 67 67 67 66 66 66 66 67 68 70 72 73 74 74 74 74 74 75 76 77 77 78 79 80 80 81 82 82 83 84 84 84 85 85 86 87 88 88 89 89 89 88 88 88 87 86 86 85 85 85 85 85 86 86 85
63 64 66 67 68 68 68 68 68 68 68 67 67 68 68 69 71 73 74 75 76 76 76 76 77 78 78 79 80 80 81 81 81 82 82 82 83 83 83 83 83 83 84 86 87 87 87 88 88 88 88 88 88 88 87 86 86 86 85 86 86 86 86
67 67 68 69 70 71 71 71 71 71 71 70 70 70 71 72 73 75 77 77 78 78 78 79 79 80 80 81 81 82 82 82 82 82 82 82 82 81 81 80 81 81 82 83 83 83 84 85 86 86 87 87 87 87 86 86 86 86 86 86 86 85 86
71 70 70 71 73 74 75 75 75 75 74 74 73 73 73 74 76 77 79 79 80 80 80 81 81 82 82 82 82 82 82 82 82 82 81 81 80 79 78 78 78 79 79 78 78 79 79 81 82 82 83 84 84 84 84 84 84 84 84 84 84 84 84
Wind_Direction
270 272 274 275 275 274 275 275 275 277 279 282 285 286 288 289 289 290 293 297 296 289 284 283 283 285 288 288 287 283 279 276 273 271 271 270 271 271 272 272 271 271 269 267 265 262 259 257 256 253 251 249 247 246 247 249 248 245 243 241 241 240 238
270 272 272 272 272 272 272 272 271 272 275 280 285 288 288 288 287 290 294 297 298 293 286 283 283 285 287 289 289 286 283 279 276 274 273 272 272 272 272 272 272 271 270 267 263 259 255 253 252 249 247 247 246 244 246 249 249 246 244 243 243 241 239
268 267 267 268 269 270 271 271 270 269 270 275 282 284 284 284 285 288 291 295 298 297 292 286 284 285 287 289 290 288 284 280 277 274 273 272 272 271 271 272 272 272 271 268 264 259 254 251 249 246 244 244 244 244 245 247 249 249 248 246 245 244 241
268 267 265 264 266 269 270 270 269 267 267 269 274 276 278 281 284 285 287 291 294 297 296 292 287 284 285 287 288 288 284 279 277 274 273 273 274 274 274 273 272 270 269 268 267 262 257 252 247 244 243 242 242 244 244 246 248 251 251 250 247 246 244
270 268 267 266 266 266 268 268 267 266 266 266 269 271 275 279 282 283 284 287 290 292 295 295 291 286 283 283 284 284 282 278 274 272 271 271 273 275 277 277 275 271 266 263 264 264 260 255 248 243 242 240 239 242 244 246 247 249 250 252 250 248 246
271 270 269 268 267 265 265 265 265 265 266 267 268 270 274 278 281 282 282 283 286 288 290 291 291 288 284 282 281 281 280 278 273 270 268 268 269 271 273 276 276 273 269 263 260 260 260 257 251 244 242 240 239 240 242 244 247 248 249 250 252 251 249
272 272 270 269 267 265 263 263 263 264 265 267 268 269 273 277 281 282 282 282 283 284 285 286 287 286 284 282 280 278 277 277 274 270 268 267 267 269 271 272 272 272 270 266 263 260 258 257 253 247 243 241 240 240 241 241 244 248 248 248 250 252 251
272 272 271 269 266 264 262 262 262 263 264 267 269 271 274 277 280 281 282 283 283 282 282 282 282 282 281 280 279 277 275 274 273 271 268 266 266 267 269 270 270 270 269 267 266 264 261 257 255 252 247 244 242 241 242 241 241 244 247 248 247 248 250
271 273 273 272 269 265 261 260 261 262 263 266 269 271 273 276 278 279 281 283 283 282 281 280 279 278 278 278 277 277 275 273 271 270 268 267 265 265 266 268 270 270 269 268 266 265 263 260 257 255 252 249 245 243 243 244 242 242 244 247 247 247 247
267 269 271 272 272 269 264 260 261 262 263 265 266 268 270 272 273 275 278 282 283 281 280 279 278 276 277 277 277 276 275 273 272 270 269 269 267 266 266 267 268 269 270 268 266 264 262 260 258 256 253 251 249 246 245 245 245 244 243 245 247 247 247
262 264 267 269 271 271 268 263 262 264 265 266 266 267 269 270 272 274 277 279 280 279 278 277 275 275 276 277 276 275 274 273 272 271 270 269 269 268 266 266 266 267 268 268 268 266 263 261 259 257 255 253 251 249 247 246 247 247 246 246 247 248 248
261 262 264 266 267 269 269 267 266 266 266 267 268 269 270 271 273 275 276 277 277 277 276 275 274 274 274 274 274 274 272 272 272 271 270 269 269 268 267 266 265 265 265 266 267 267 266 264 262 259 257 255 253 252 251 249 249 249 248 248 248 248 249
260 261 262 263 264 266 268 268 267 266 267 269 270 270 271 272 272 273 274 275 276 276 274 273 272 271 271 270 271 272 272 273 273 271 270 270 269 268 267 267 266 265 265 265 265 266 267 267 266 264 261 258 256 255 254 253 251 251 251 249 249 249 249
258 259 261 263 265 266 267 267 267 267 268 269 270 270 270 270 271 271 272 274 276 275 273 271 269 268 268 268 270 271 273 275 276 275 273 271 269 268 267 267 266 265 265 265 265 265 265 266 266 266 265 263 260 258 257 256 254 253 253 252 251 250 250
257 258 260 262 264 265 266 267 268 269 268 268 268 268 268 269 270 271 272 274 276 275 273 271 268 267 267 269 271 272 273 275 277 277 276 273 269 267 266 265 265 265 265 264 264 263 263 264 264 264 264 264 263 261 260 258 257 255 254 253 253 252 251
255 256 257 259 260 262 263 264 267 269 268 267 267 267 267 269 270 270 272 275 275 275 274 272 270 269 270 270 271 272 273 274 275 276 277 274 269 265 264 264 263 263 263 264 264 263 263 262 263 263 263 262 262 262 261 260 258 257 255 253 253 252 252
256 257 257 257 258 259 261 262 265 267 268 267 266 267 267 268 270 272 274 275 274 274 273 272 271 271 271 271 272 272 272 274 275 276 275 272 268 264 262 262 262 263 262 262 263 263 263 263 263 262 262 262 261 261 261 261 260 259 257 256 254 253 252
258 259 259 260 260 260 261 263 264 265 267 267 267 267 268 270 272 274 275 275 274 273 272 271 271 271 271 272 272 272 273 274 274 274 273 271 269 266 263 262 261 262 262 262 262 262 262 262 262 262 262 262 261 261 260 259 259 259 259 258 257 256 254
258 260 261 262 261 260 260 261 262 264 267 269 271 271 271 271 272 273 273 274 273 272 271 270 270 270 270 271 271 271 272 271 271 271 270 271 271 270 266 263 262 261 260 261 261 260 260 260 260 261 261 261 261 261 260 260 259 259 259 258 258 257 257
256 258 260 261 261 261 261 261 262 265 267 270 273 274 274 273 272 272 272 272 272 272 271 270 269 270 270 270 270 270 270 270 270 270 270 271 272 269 266 265 265 263 262 261 261 261 260 260 259 259 259 260 260 260 260 260 259 259 259 259 258 257 257
255 256 257 258 259 262 264 264 265 265 267 269 271 272 276 277 276 274 273 272 273 274 273 271 270 270 271 270 270 270 270 271 271 271 271 271 269 265 263 265 267 267 266 265 264 263 261 261 260 259 259 258 257 257 258 259 259 259 259 258 258 258 257
256 256 256 256 258 261 263 264 263 263 265 267 268 269 271 273 273 274 275 274 273 270 268 271 273 272 270 270 269 269 270 271 272 273 273 272 269 264 262 264 267 268 268 267 267 266 264 263 262 261 260 259 257 255 255 256 257 258 258 258 258 258 257
259 258 257 257 257 260 261 260 258 258 259 261 265 267 266 265 266 269 272 273 270 264 263 269 274 275 272 271 270 269 269 270 271 272 273 272 269 266 265 267 269 270 269 268 266 266 266 266 265 264 262 261 260 258 256 255 256 257 257 258 258 258 257
260 260 260 259 258 258 257 256 256 257 257 259 264 266 265 265 265 266 267 268 267 265 265 268 272 275 276 277 276 274 272 271 270 270 270 269 268 267 267 268 270 272 272 271 268 266 265 265 266 265 264 263 262 261 259 258 258 258 258 257 257 257 257
260 261 261 260 260 258 257 256 257 257 258 259 261 263 264 265 264 263 262 262 263 265 267 269 271 273 276 278 278 278 277 276 274 273 271 270 269 269 270 270 271 272 273 273 271 269 267 265 264 263 263 263 263 262 261 260 260 260 260 259 258 257 257
260 261 262 262 261 260 259 258 258 257 258 258 259 261 263 264 263 262 261 261 263 265 267 268 270 272 273 275 275 276 277 276 276 276 275 274 273 273 273 274 274 274 273 272 271 269 268 267 266 264 263 262 262 262 263 262 262 261 261 260 259 259 258
260 261 262 261 261 260 259 258 258 258 259 259 259 260 261 262 263 263 262 262 263 265 266 267 268 270 271 272 273 274 274 274 275 275 275 276 276 275 275 275 275 274 273 272 270 269 268 267 267 267 266 264 263 262 262 262 263 263 262 261 260 259 259
260 260 261 261 260 260 259 259 258 258 258 259 260 260 260 261 261 261 261 261 262 263 264 265 266 267 268 269 270 271 272 273 273 274 275 275 275 276 276 275 275 274 273 273 271 270 268 268 267 267 267 266 265 264 263 263 263 262 262 262 261 260 260
261 261 261 261 260 260 259 260 259 259 258 258 259 259 260 260 260 259 259 259 260 261 262 263 264 265 265 266 267 269 270 271 272 273 274 274 275 275 275 275 275 274 274 273 272 271 270 269 268 267 267 267 267 266 265 264 262 261 260 260 261 261 261
263 263 263 262 261 261 260 260 260 260 259 259 259 259 259 259 259 259 259 258 259 260 261 262 263 264 265 266 267 267 268 269 270 271 272 273 274 274 275 275 275 275 274 273 273 272 272 270 269 268 267 267 267 267 266 265 263 262 261 260 260 260 260
263 263 263 262 262 261 261 260 260 260 260 260 260 259 258 258 258 258 258 258 259 259 260 261 262 263 265 265 266 267 268 268 269 270 270 271 272 272 273 274 274 274 275 275 274 274 273 272 271 270 268 267 267 267 267 267 266 265 264 263 261 259 258
262 262 262 262 262 261 261 261 261 261 260 260 259 258 257 257 257 257 257 258 259 260 261 262 262 263 264 265 265 266 267 268 269 269 270 270 271 271 272 272 273 273 274 274 274 274 274 273 272 271 270 269 268 268 268 268 268 267 267 266 264 262 260
259 260 260 260 261 261 261 261 261 261 260 260 259 258 257 257 257 257 259 260 261 262 263 263 264 264 265 265 266 267 268 269 269 269 270 270 271 271 271 272 272 273 273 273 273 273 273 273 272 272 272 271 270 270 269 268 268 268 268 268 267 266 265
256 257 259 259 260 260 260 260 260 260 260 259 259 258 258 258 259 259 260 262 263 263 264 265 265 266 266 267 268 268 269 269 269 270 270 270 270 271 271 272 272 272 273 273 272 272 272 272 272 272 272 272 271 271 270 269 269 268 268 268 268 268 268
256 257 258 259 259 259 259 258 259 259 259 259 259 259 259 259 260 261 262 262 263 264 265 266 267 268 268 269 270 270 270 270 270 270 270 270 271 271 271 272 272 272 272 271 271 271 272 272 272 272 271 271 271 271 271 271 270 270 270 269 268 268 268
258 258 258 259 260 260 260 259 259 259 259 259 259 259 260 260 261 262 263 264 265 266 267 267 268 269 270 271 271 272 272 272 272 272 272 272 272 273 273 273 273 272 271 270 270 271 271 271 271 271 271 271 271 271 271 271 271 271 271 270 270 270 270
260 259 258 259 259 260 261 261 261 261 261 260 260 260 260 261 262 263 264 265 266 267 268 269 270 270 271 271 271 272 272 273 273 273 274 274 274 275 274 274 272 272 271 271 271 271 271 270 270 270 271 271 271 271 271 271 271 271 271 271 271 271 271
Height
10609 10610 10610 10611 10612 10612 10612 10611 10610 10609 10609 10609 10609 10608 10608 10608 10608 10609 10611 10612 10612 10612 10611 10610 10609 10608 10608 10607 10606 10605 10605 10605 10606 10606 10607 10607 10608 10609 10609 10610 10610 10611 10612 10613 10614 10615 10616 10617 10619 10620 10622 10623 10625 10626 10628 10630 10631 10632 10634 10636 10638 10640 10642
10604 10604 10604 10604 10605 10606 10607 10607 10607 10607 10607 10606 10605 10604 10604 10603 10603 10603 10605 10606 10607 10608 10607 10607 10606 10605 10604 10603 10603 10602 10602 10602 10602 10603 10604 10604 10605 10606 10606 10606 10607 10607 10608 10609 10610 10611 10612 10613 10615 10616 10618 10620 10621 10623 10625 10626 10626 10628 10630 10632 10634 10636 10637
10598 10599 10599 10599 10599 10600 10601 10602 10602 10603 10603 10603 10603 10602 10601 10600 10600 10599 10600 10601 10602 10603 10603 10603 10602 10602 10601 10600 10599 10599 10599 10599 10599 10600 10601 10601 10602 10602 10603 10603 10604 10604 10605 10605 10606 10607 10608 10609 10611 10613 10615 10617 10619 10620 10621 10621 10622 10624 10626 10629 10630 10631 10633
10591 10592 10593 10595 10596 10596 10596 10596 10596 10597 10598 10599 10600 10599 10598 10598 10597 10597 10597 10597 10598 10599 10599 10599 10599 10599 10598 10597 10597 10596 10596 10596 10596 10597 10597 10598 10599 10599 10600 10600 10601 10601 10602 10602 10603 10603 10604 10605 10607 10609 10611 10613 10615 10617 10617 10617 10618 10620 10622 10624 10625 10627 10629
10584 10584 10586 10589 10592 10593 10591 10591 10591 10591 10592 10593 10594 10594 10594 10594 10594 10594 10594 10594 10595 10595 10595 10596 10596 10595 10595 10594 10594 10593 10593 10593 10593 10594 10594 10595 10596 10596 10597 10598 10598 10598 10599 10599 10600 10600 10601 10601 10603 10606 10608 10610 10612 10613 10613 10613 10614 10616 10618 10620 10621 10624 10626
10577 10577 10580 10583 10586 10588 10587 10586 10585 10586 10586 10587 10588 10588 10588 10589 10589 10589 10590 10591 10591 10592 10592 10592 10592 10592 10591 10591 10591 10591 10591 10591 10591 10591 10591 10592 10592 10593 10594 10594 10595 10595 10595 10596 10596 10597 10597 10598 10600 10602 10604 10605 10607 10608 10609 10609 10610 10612 10614 10616 10618 10620 10623
10571 10570 10572 10575 10578 10581 10582 10581 10580 10581 10581 10582 10582 10583 10583 10584 10584 10584 10585 10586 10587 10588 10588 10588 10588 10588 10587 10587 10587 10587 10587 10588 10588 10588 10588 10588 10588 10589 10590 10590 10591 10591 10592 10592 10593 10593 10594 10595 10596 10597 10599 10601 10602 10604 10604 10605 10606 10608 10609 10612 10614 10616 10618
10565 10563 10564 10568 10571 10574 10576 10576 10576 10576 10577 10577 10577 10578 10578 10579 10579 10580 10580 10581 10582 10583 10584 10584 10584 10584 10583 10583 10583 10583 10584 10584 10584 10584 10584 10584 10584 10585 10585 10586 10586 10587 10588 10588 10589 10590 10590 10591 10592 10593 10595 10596 10598 10599 10600 10601 10602 10603 10605 10607 10609 10611 10613
10559 10558 10559 10561 10564 10568 10570 10571 10571 10571 10572 10572 10573 10573 10574 10574 10575 10575 10576 10577 10577 10578 10578 10579 10579 10579 10579 10578 10578 10578 10578 10579 10579 10579 10579 10579 10580 10580 10581 10581 10582 10583 10583 10584 10585 10586 10586 10587 10588 10589 10591 10592 10593 10595 10596 10597 10598 10599 10600 10601 10603 10605 10608
10555 10555 10555 10555 10557 10560 10563 10565 10565 10565 10565 10566 10567 10568 10569 10570 10570 10571 10571 10572 10572 10573 10573 10573 10573 10573 10574 10573 10573 10573 10573 10573 10573 10574 10574 10575 10575 10576 10576 10577 10577 10578 10579 10579 10580 10581 10582 10582 10583 10585 10586 10587 10588 10589 10591 10592 10593 10594 10596 10597 10598 10600 10602
10550 10551 10551 10551 10551 10552 10556 10558 10559 10559 10559 10559 10561 10563 10564 10565 10565 10566 10566 10567 10567 10567 10567 10567 10568 10568 10568 10568 10567 10567 10567 10567 10568 10568 10569 10570 10570 10571 10572 10572 10573 10574 10574 10575 10575 10576 10577 10577 10578 10579 10581 10582 10583 10584 10585 10587 10588 10589 10591 10592 10593 10594 10597
10545 10546 10546 10546 10546 10547 10549 10550 10551 10551 10552 10553 10554 10556 10558 10558 10559 10560 10560 10561 10561 10562 10562 10562 10563 10563 10562 10562 10562 10562 10562 10562 10562 10563 10564 10564 10565 10565 10566 10567 10568 10568 10569 10570 10570 10571 10571 10572 10573 10574 10576 10577 10578 10579 10580 10581 10582 10584 10585 10586 10588 10589 10591
10540 10540 10540 10541 10542 10542 10542 10541 10542 10544 10546 10547 10548 10549 10550 10551 10552 10553 10554 10554 10555 10556 10556 10557 10557 10556 10556 10556 10556 10556 10556 10557 10558 10558 10558 10558 10559 10559 10560 10560 10561 10562 10563 10564 10565 10565 10566 10567 10568 10569 10570 10571 10573 10574 10575 10576 10577 10578 10580 10581 10582 10583 10585
10534 10534 10535 10536 10536 10536 10534 10532 10534 10538 10540 10541 10542 10542 10543 10543 10544 10545 10546 10547 10548 10549 10549 10550 10550 10549 10549 10549 10550 10551 10551 10552 10553 10553 10553 10553 10553 10553 10553 10553 10554 10555 10556 10557 10558 10559 10560 10561 10562 10563 10565 10566 10567 10568 10569 10570 10572 10573 10574 10575 10576 10577 10578
10528 10529 10529 10530 10530 10530 10527 10526 10527 10530 10533 10534 10535 10535 10535 10535 10536 10536 10537 10539 10540 10542 10542 10542 10542 10542 10543 10543 10544 10545 10546 10546 10547 10547 10548 10548 10547 10547 10546 10547 10547 10548 10549 10550 10551 10553 10554 10555 10556 10558 10559 10560 10561 10562 10563 10564 10565 10566 10567 10568 10570 10571 10572
10521 10522 10524 10524 10524 10524 10523 10522 10521 10522 10524 10526 10527 10528 10528 10528 10528 10528 10530 10531 10533 10534 10534 10534 10535 10535 10536 10537 10537 10538 10538 10539 10539 10540 10541 10541 10540 10540 10540 10540 10541 10542 10543 10543 10544 10546 10547 10549 10550 10551 10552 10553 10554 10555 10556 10558 10559 10560 10561 10562 10562 10564 10565
10514 10515 10517 10518 10518 10518 10517 10517 10517 10515 10516 10518 10520 10521 10521 10521 10521 10521 10522 10524 10525 10525 10526 10526 10526 10527 10528 10528 10529 10530 10530 10531 10531 10532 10532 10532 10532 10532 10533 10534 10534 10535 10536 10537 10538 10539 10541 10542 10543 10544 10545 10546 10548 10549 10550 10551 10552 10553 10554 10555 10556 10557 10558
10508 10509 10510 10511 10512 10512 10511 10512 10512 10510 10509 10510 10512 10513 10514 10515 10514 10514 10514 10515 10516 10517 10517 10517 10518 10519 10520 10520 10520 10521 10522 10522 10523 10524 10524 10524 10524 10525 10525 10526 10528 10528 10529 10530 10531 10532 10533 10534 10536 10537 10538 10539 10540 10541 10542 10544 10545 10546 10547 10548 10549 10550 10551
10503 10503 10504 10505 10505 10505 10504 10505 10505 10505 10504 10504 10503 10503 10505 10508 10508 10507 10506 10506 10506 10507 10508 10509 10510 10511 10512 10512 10512 10513 10513 10514 10514 10515 10516 10516 10517 10517 10518 10518 10520 10521 10522 10522 10523 10524 10526 10527 10528 10529 10530 10531 10532 10533 10534 10535 10537 10538 10539 10541 10542 10543 10544
10497 10497 10497 10497 10497 10497 10497 10497 10499 10500 10499 10499 10496 10494 10494 10497 10499 10499 10499 10498 10496 10496 10498 10499 10501 10502 10504 10504 10504 10504 10505 10505 10506 10507 10508 10509 10509 10509 10510 10510 10512 10513 10515 10515 10516 10517 10518 10519 10520 10521 10521 10522 10523 10525 10526 10527 10528 10530 10531 10532 10534 10535 10536
10490 10491 10491 10490 10491 10490 10489 10491 10493 10494 10494 10493 10490 10489 10488 10487 10488 10489 10490 10490 10488 10486 10486 10488 10492 10494 10495 10496 10496 10496 10497 10497 10498 10499 10500 10501 10502 10502 10502 10503 10504 10506 10506 10507 10508 10509 10510 10511 10511 10512 10513 10513 10514 10515 10517 10518 10520 10521 10522 10523 10524 10525 10527
10483 10484 10484 10485 10486 10485 10485 10488 10488 10488 10490 10487 10481 10484 10484 10481 10480 10480 10481 10482 10482 10480 10476 10476 10481 10487 10488 10489 10489 10489 10490 10489 10490 10490 10491 10493 10494 10494 10495 10496 10498 10498 10499 10500 10500 10501 10502 10502 10503 10503 10504 10504 10505 10507 10508 10510 10511 10512 10512 10513 10514 10515 10517
10475 10476 10478 10479 10480 10481 10482 10484 10481 10482 10487 10484 10475 10475 10477 10475 10475 10476 10475 10475 10475 10474 10471 10468 10470 10474 10478 10480 10482 10483 10483 10483 10483 10483 10483 10484 10485 10486 10486 10487 10489 10490 10491 10492 10493 10493 10494 10494 10495 10495 10495 10495 10496 10498 10500 10501 10502 10502 10503 10503 10504 10506 10507
10467 10469 10471 10472 10474 10476 10477 10476 10474 10475 10481 10482 10473 10465 10466 10469 10471 10472 10472 10470 10468 10467 10466 10464 10463 10464 10465 10468 10471 10473 10475 10475 10476 10476 10476 10476 10477 10477 10477 10479 10480 10481 10482 10483 10484 10485 10486 10487 10487 10486 10485 10486 10487 10489 10491 10492 10493 10493 10493 10494 10495 10496 10497
10460 10461 10463 10464 10465 10468 10468 10467 10468 10469 10472 10475 10469 10458 10457 10462 10465 10465 10466 10464 10461 10459 10459 10458 10458 10458 10458 10460 10461 10462 10463 10464 10465 10466 10467 10468 10468 10468 10469 10470 10471 10472 10473 10474 10475 10475 10476 10477 10477 10477 10476 10477 10478 10480 10481 10482 10483 10484 10484 10484 10485 10486 10487
10453 10453 10454 10455 10456 10458 10459 10459 10460 10461 10463 10464 10461 10455 10453 10456 10456 10457 10457 10455 10453 10452 10452 10452 10451 10452 10452 10453 10454 10454 10454 10453 10454 10455 10457 10458 10459 10459 10459 10460 10461 10462 10463 10465 10465 10465 10466 10466 10467 10468 10468 10468 10470 10470 10471 10471 10472 10473 10474 10474 10475 10475 10477
10445 10445 10445 10446 10446 10448 10450 10451 10451 10452 10453 10454 10453 10450 10449 10449 10449 10450 10450 10448 10447 10446 10445 10446 10446 10446 10446 10446 10447 10447 10446 10445 10446 10446 10446 10447 10448 10448 10449 10450 10450 10451 10452 10453 10454 10455 10456 10457 10458 10459 10459 10459 10460 10460 10461 10461 10461 10462 10462 10463 10463 10464 10465
10435 10436 10435 10436 10436 10437 10439 10441 10442 10443 10444 10444 10444 10443 10442 10443 10443 10443 10442 10441 10440 10439 10439 10439 10440 10440 10440 10440 10440 10440 10439 10438 10438 10438 10438 10438 10438 10438 10439 10439 10440 10440 10441 10442 10443 10444 10446 10448 10449 10449 10449 10448 10448 10450 10452 10452 10452 10451 10451 10451 10452 10453 10453
10424 10425 10425 10425 10426 10427 10428 10430 10432 10434 10435 10435 10435 10435 10435 10435 10435 10436 10436 10435 10433 10432 10432 10433 10433 10433 10433 10433 10433 10433 10433 10432 10431 10431 10430 10429 10428 10428 10429 10429 10430 10430 10431 10431 10432 10433 10435 10437 10438 10438 10438 10437 10437 10439 10440 10440 10440 10439 10439 10440 10442 10442 10443
10413 10413 10414 10414 10416 10417 10419 10420 10422 10423 10424 10425 10426 10426 10426 10426 10426 10427 10427 10427 10426 10425 10424 10425 10425 10425 10425 10425 10426 10426 10426 10425 10425 10424 10422 10421 10419 10419 10418 10419 10419 10419 10419 10420 10421 10422 10423 10424 10426 10426 10426 10426 10426 10426 10427 10426 10427 10427 10428 10430 10432 10432 10432
10402 10402 10403 10404 10405 10406 10408 10410 10412 10413 10413 10415 10416 10416 10416 10416 10417 10417 10417 10417 10417 10416 10416 10417 10418 10418 10417 10418 10418 10418 10418 10417 10417 10416 10414 10413 10412 10410 10410 10409 10409 10409 10409 10409 10410 10410 10411 10411 10412 10413 10413 10413 10413 10413 10413 10414 10415 10416 10417 10418 10419 10420 10420
10393 10393 10393 10394 10394 10396 10398 10400 10401 10402 10403 10404 10405 10406 10406 10406 10407 10407 10407 10407 10408 10408 10408 10408 10409 10410 10410 10410 10410 10410 10409 10408 10408 10407 10405 10404 10403 10402 10401 10400 10400 10401 10400 10400 10399 10398 10398 10397 10397 10398 10399 10399 10400 10401 10401 10401 10402 10403 10403 10404 10405 10406 10407
10385 10384 10384 10385 10385 10386 10388 10389 10390 10391 10392 10393 10394 10395 10396 10397 10397 10398 10397 10397 10398 10398 10398 10399 10400 10400 10400 10400 10401 10400 10400 10399 10398 10397 10396 10395 10394 10393 10392 10392 10392 10392 10391 10390 10388 10386 10385 10384 10384 10385 10385 10386 10387 10388 10387 10388 10389 10389 10390 10390 10391 10392 10393
10376 10376 10376 10376 10376 10377 10378 10379 10380 10381 10382 10383 10385 10386 10387 10388 10389 10388 10387 10387 10387 10388 10388 10389 10390 10390 10390 10390 10390 10389 10389 10389 10388 10387 10386 10385 10385 10384 10383 10383 10384 10383 10381 10379 10376 10375 10374 10373 10373 10373 10373 10373 10373 10374 10374 10374 10375 10376 10377 10377 10377 10378 10378
10367 10368 10368 10367 10367 10367 10368 10369 10369 10370 10372 10374 10375 10377 10378 10379 10379 10378 10377 10377 10377 10378 10379 10379 10380 10380 10379 10379 10378 10378 10377 10377 10377 10376 10376 10375 10375 10374 10374 10375 10374 10373 10370 10367 10365 10364 10364 10363 10362 10361 10361 10360 10360 10361 10361 10362 10362 10363 10363 10363 10363 10364 10364
10357 10359 10359 10358 10358 10357 10357 10359 10360 10361 10362 10365 10367 10368 10369 10369 10369 10368 10367 10367 10367 10368 10369 10369 10369 10369 10368 10368 10367 10366 10366 10365 10365 10365 10364 10364 10364 10365 10365 10364 10362 10359 10356 10355 10354 10354 10353 10352 10351 10350 10349 10348 10348 10349 10349 10349 10350 10350 10350 10350 10351 10351 10351
10346 10348 10348 10349 10348 10347 10346 10348 10349 10350 10352 10354 10357 10359 10360 10360 10359 10358 10357 10357 10357 10358 10358 10358 10358 10358 10357 10356 10356 10355 10355 10354 10354 10354 10353 10353 10354 10354 10353 10351 10348 10346 10345 10345 10344 10343 10341 10340 10339 10338 10338 10337 10337 10337 10337 10338 10338 10338 10338 10338 10339 10339 10338